www.pogodaiklimat.ru

Погода и климат >> Архив погоды >> Южная Африка >> Робертсон


ПОГОДА в Робертсоне

  • Прогноз погоды в Робертсоне
  • Монитор погоды в Робертсоне

АРХИВ ПОГОДЫ в Робертсоне

Время (UTC), дата Ветер
(напр.,м/с)
 
Видим.   Явления Облачность Т
(С)
Тd
(С)
f
(%)
Тe
(С)
Тes
(С)
Комфортность P
(гПа)
Po
(гПа)
Тmin
(С)
Tmax
(С)
R
(мм)
R24
(мм)
S
(см)
18 18.06 СВ 1 н/о н/о +13.5 +3.9 52 +14 +14 996.2 +13.3 +26.2
21 18.06 СВ 1 н/о н/о +11.0 +3.5 60 +11 +11 996.2 +10.8 +26.2
00 19.06 СВ 1 н/о н/о +9.6 +3.8 67 +9 +9 996.2 +9.0 +26.2
03 19.06 В 1 н/о н/о +8.9 +3.9 71 +8 +8 995.9 +8.1 +26.2
06 19.06 СВ 2 н/о н/о +8.5 +3.9 73 +7 +7 996.7 +7.7
09 19.06 З 2 н/о н/о +17.3 +5.3 45 +18 +18 997.3 +7.7 +17.3
12 19.06 Ю 1 н/о н/о +27.8 +5.0 23 +27 +27 жарко 995.0 +7.7 +28.0
15 19.06 СЗ 3 н/о н/о +25.2 +5.1 27 +25 +25 комфорт 995.1 +25.2 +29.5
18 19.06 штиль 0 >70 км 10/0 2000 м
[Ac As]
+14.6 +5.7 55 +14 +14 996.7 +14.4 +29.5
21 19.06 В 2 н/о н/о +13.9 +4.5 53 +14 +14 997.6 +12.5 +29.5
00 20.06 В 1 н/о н/о +10.1 +3.6 64 +10 +10 997.5 +10.1 +29.5
03 20.06 штиль 0 н/о н/о +8.1 +2.9 70 +8 +8 997.3 +7.9 +29.5
06 20.06 СВ 2 >70 км 8/0 100 м
[]
+8.0 +3.4 73 +7 +7 997.5 +6.5
09 20.06 ЮЗ 1 н/о н/о +19.6 +5.7 40 +21 +21 комфорт 997.2 +6.5 +19.6
12 20.06 ЮЗ 1 н/о н/о +26.5 +5.1 25 +26 +26 жарко 994.4 +6.5 +26.5
15 20.06 С 3 н/о н/о +26.7 +1.4 19 +25 +25 комфорт 992.6 +26.2 +29.1
18 20.06 СЗ 2 н/о н/о +23.8 +0.4 21 +23 +23 комфорт 992.0 +21.2 +29.1
21 20.06 СЗ 1 н/о н/о +12.9 +3.0 51 +13 +13 991.6 +12.7 +29.1
00 21.06 штиль 0 н/о н/о +10.4 +2.7 59 +10 +10 990.6 +10.3 +29.1
03 21.06 СВ 2 н/о н/о +11.6 +2.1 52 +11 +11 988.9 +9.0 +29.1
06 21.06 СВ 2 н/о н/о +10.6 +1.9 55 +10 +10 988.3 +9.0
09 21.06 СЗ 3 н/о н/о +21.6 +0.9 25 +21 +21 комфорт 989.3 +9.0 +22.5
12 21.06 СЗ 7 н/о н/о +25.6 +1.2 20 +24 +24 комфорт 985.1 +9.0 +25.6
15 21.06 З 8 н/о н/о +18.0 +6.9 48 +17 +17 987.2 +18.0 +25.7
18 21.06 С 5 н/о н/о +15.9 +3.4 43 +15 +15 987.1 +13.7 +25.7
21 21.06 С 9 н/о н/о +14.2 +6.1 58 +12 +12 985.7 +12.7 +25.7
00 22.06 З 10 н/о н/о +16.1 +8.1 59 +14 +14 989.3 +12.7 +25.7 0.6
06 22.06 СЗ 6 >70 км 10/10 600 м
[Sc]
+14.3 +8.7 69 +13 +13 995.3 +12.7 0.6
09 22.06 СЗ 6 н/о н/о +16.6 +9.3 62 +16 +16 997.5 +12.7 +16.8
12 22.06 З 4 >70 км 9/9 600 м
[Sc]
+17.1 +10.7 66 +17 +17 997.2 +12.7 +17.8
21 22.06 СВ 3 н/о н/о +12.7 +11.2 91 +11 +11 1000.7 +12.7 +18.1
00 23.06 В 1 н/о н/о +12.2 +10.7 91 +12 +12 1000.3 +12.2 +18.1 14
09 23.06 ЮЗ 1 н/о н/о +13.6 +11.8 89 +14 +14 999.7 +6.9 +13.6
12 23.06 ЮЗ 2 н/о н/о +18.1 +11.2 64 +19 +19 996.5 +6.9 +18.2
15 23.06 штиль 0 н/о н/о +19.8 +11.1 57 +21 +21 комфорт 995.2 +18.0 +20.5
18 23.06 СВ 2 н/о н/о +11.8 +8.1 78 +11 +11 995.7 +11.8 +20.5
21 23.06 СВ 1 н/о н/о +9.1 +7.2 88 +8 +8 995.2 +8.8 +20.5
00 24.06 СВ 1 н/о н/о +7.0 +5.6 91 +6 +6 994.2 +7.0 +20.5
03 24.06 СВ 1 н/о н/о +5.6 +4.7 94 +4 +4 993.3 +5.6 +20.5
06 24.06 СЗ 1 н/о н/о +5.0 +4.1 94 +4 +4 994.5 +4.4
09 24.06 штиль 0 н/о н/о +12.4 +10.6 89 +12 +12 995.7 +4.4 +12.4
12 24.06 В 2 н/о н/о +17.2 +9.9 62 +18 +18 994.9 +4.4 +17.2
15 24.06 В 2 н/о н/о +15.6 +9.1 65 +16 +16 995.6 +15.6 +17.8
18 24.06 В 1 н/о н/о +13.1 +9.0 76 +13 +13 997.2 +13.1 +17.8 0.2
21 24.06 В 2 н/о н/о +12.5 +10.0 85 +12 +12 998.2 +12.2 +17.8
00 25.06 В 1 н/о н/о +11.8 +10.0 89 +12 +12 998.2 +11.8 +17.8 0.2
03 25.06 В 1 н/о н/о +9.5 +7.7 89 +9 +9 997.9 +9.5 +17.8
06 25.06 В 1 н/о н/о +10.7 +8.9 89 +10 +10 998.7 +9.5 0.2
09 25.06 ЮВ 3 н/о н/о +13.8 +10.8 82 +13 +13 998.7 +9.5 +13.8
12 25.06 ЮВ 3 н/о н/о +15.4 +10.8 74 +15 +15 996.3 +9.5 +15.4
15 25.06 ЮВ 3 н/о н/о +14.0 +10.6 80 +13 +13 996.5 +14.0 +15.5

 

Местоположение метеостанции Робертсон (Южная Африка): широта -33.80 долгота 19.90 высота над уровнем моря 204 м.

В архиве по умолчанию представлена погода в Робертсоне за последнюю неделю. Архивные данные за месяц целиком и за предыдущие месяцы, начиная с января 2011 года, Вы можете получить, выбрав интересующий диапазон дат из раскрывающегося списка и нажав кнопку "Ввод!".


*Определитесь, кто Вы:
робот инопланетянин человек

Внимание! Время в таблицах - всемирное. Для получения местного времени необходимо прибавить поправку, которая равна 2 ч.

Смотрите также архив погоды в соседних городах и на ближайших метеорологических станциях:

Погода в Тигерхуке (Южная Африка) (39 км)
Погода в Вустере (Южная Африка) (45 км)
Погода в Парле (Южная Африка) (86 км)
Погода в Херманусе (Южная Африка) (94 км)
Погода на Станции Excelsior Ceres (Южная Африка) (103 км)
Погода в Странде (Южная Африка) (104 км)
Погода в Лайнгсбурге (Южная Африка) (112 км)
Погода в Струисбааи (Южная Африка) (112 км)
Погода на Мысе Игольном (Южная Африка) (115 км)
Погода в Малмсбери (Южная Африка) (116 км)

Пояснения к столбцам:

Ветер - указаны скорость ветра в м/с - средняя за 10 мин, порывы в срок и между сроками (в фигурных скобках) и направление, откуда дует ветер: С - северный, СВ - северо-восточный, В - восточный, ЮВ - юго-восточный, Ю - южный, ЮЗ - юго-западный, З - западный, СЗ - северо-западный.
Видимость - горизонтальная дальность видимости в метрах или километрах. При видимости от 1 до 10 км при отсутствии осадков обычно наблюдается дымка, при ухудшении видимости до 1 км и менее - туман. В сухую погоду видимость может ухудшаться дымом, пылью или мглою.
Явления - указаны атмосферные явления, наблюдавшиеся в срок или в последний час перед сроком; фигурными скобками обозначены явления, наблюдавшиеся между сроками (за 1-3 часа до срока); квадратными скобками обозначены град или гололедные отложения с указанием их диаметра в мм.
Облачность - указаны через наклонную черту общая и нижняя облачность в баллах и высота нижней границы облаков в метрах; квадратными скобками обозначены формы облаков: Ci - перистые, Cs - перисто-слоистые, Cc - перисто-кучевые, Ac - высококучевые, As - высокослоистые, Sc - слоисто-кучевые, Ns - слоисто-дождевые, Cu - кучевые, Cb - кучево-дождевые. Подробнее классификацию облаков см. в Атласе облаков (PDF).
T - Температура воздуха - температура, измеренная на высоте 2 м над землей.
Td - Температура точки росы - температура, при понижении до которой содержащийся в воздухе водяной пар достигнет насыщения.
f - Относительная влажность воздуха - влажноcть воздуха, измеренная на высоте 2 м над землей.
Te - Эффективная температура - температура, которую ощущает одетый по сезону человек в тени. Характеристика душности погоды. При расчете учитывается влияние влажности воздуха и скорости ветра на теплоощущения человека.
Tes - Эффективная температура на солнце - температура, которую ощущает человек, с поправкой на солнечный нагрев. Характеристика знойности погоды. Зависит от высоты солнца над горизонтом, облачности и скорости ветра. Ночью, в пасмурную погоду, а также при ветре 12 м/с и более поправка равна нулю.
P - Атмосферное давление - приведенное к уровню моря атмосферное давление.
Po - Атмосферное давление - измеренное на уровне метеостанции атмосферное давление.
Tmin - Минимальная температура - минимум температуры воздуха на высоте 2 м над землей.
Tmax - Максимальная температура - максимум температуры воздуха на высоте 2 м над землей.
R - Количество осадков - Количество выпавших осадков за период времени, мм. При наведении курсора мыши на число - период времени, за который выпало указанное количество осадков.
R24 - Количество осадков - Количество выпавших осадков за 24 часа, мм.
S - Снежный покров - Высота снежного покрова, см. При наведении курсора мыши на число - состояние снежного покрова и степень покрытия местности в баллах.